Forside
METAR-TAF:

METAR-TAF

Lufthavne :

Rush City Regional Airport

Rush City, Minnesota, USA

Breddekreds: 45-41-53N, længdekreds: 092-57-11W, højde: 281 m

Aktuelle vejr

Denne rapport blev lavet for 29 minutter siden, kl. 12:15 UTC
Vind stille
Temperatur 1°C
Fugtighed 80%
Tryk 1029 hPa
Sigt: 16.1 km
skyfri

METAR: KROS 111215Z AUTO 00000KT 10SM CLR 01/M02 A3039 RMK AO2 T00101016

Tid: 07:44 (12:44 UTC)


TAF: fraværende

Vejrobservationer og prognoser fra mere end 4000 lufthavne (METAR og TAF).

De gule og røde prikker repræsenterer de meteorologiske stationer.

Flyt musen over at se navnet på stationen.

Så klik over at se vejr observationer og prognoser.

At skifte det kort: Klik på de grønne knapper med et sort kors for at zoome ind; på den grønne knap med en bindestreg for at zoome ud; eller på de grønne pile for tilstødende kort.


METAR-TAF: